| time (UTC) | temp C | wind direction | speed KPH | gust KPH | rain 1hr cm | rain 24hr cm | rain mn cm | humidity % | barometer mb |
| 20260507194943 | 18 | 107 | 4.8 | 9.7 | 0.00 | 0.00 | 0.00 | 68 | 1013.0 |
| 20260507193943 | 18 | 116 | 3.2 | 11.3 | 0.00 | 0.00 | 0.00 | 68 | 1012.8 |
| 20260507192944 | 18 | 120 | 3.2 | 9.7 | 0.00 | 0.00 | 0.00 | 67 | 1012.7 |
| 20260507191943 | 19 | 109 | 4.8 | 11.3 | 0.00 | 0.00 | 0.00 | 66 | 1012.7 |
| 20260507190945 | 19 | 123 | 6.4 | 16.1 | 0.00 | 0.00 | 0.00 | 65 | 1012.6 |
| 20260507184943 | 20 | 111 | 6.4 | 16.1 | 0.00 | 0.00 | 0.00 | 64 | 1012.3 |
| 20260507183944 | 20 | 102 | 6.4 | 14.5 | 0.00 | 0.00 | 0.00 | 62 | 1012.2 |
| 20260507182947 | 20 | 107 | 6.4 | 19.3 | 0.00 | 0.00 | 0.00 | 61 | 1012.2 |
| 20260507181944 | 21 | 120 | 6.4 | 14.5 | 0.00 | 0.00 | 0.00 | 59 | 1012.1 |
| 20260507180945 | 21 | 134 | 3.2 | 11.3 | 0.00 | 0.00 | 0.00 | 58 | 1011.9 |
| 20260507174944 | 21 | 145 | 1.6 | 16.1 | 0.00 | 0.00 | 0.00 | 57 | 1011.7 |
| 20260507173945 | 22 | 116 | 8.0 | 16.1 | 0.00 | 0.00 | 0.00 | 56 | 1011.6 |
| 20260507172944 | 22 | 134 | 3.2 | 14.5 | 0.00 | 0.00 | 0.00 | 55 | 1011.7 |
| 20260507171944 | 22 | 118 | 4.8 | 11.3 | 0.00 | 0.00 | 0.00 | 54 | 1011.6 |
| 20260507170944 | 22 | 123 | 4.8 | 9.7 | 0.00 | 0.00 | 0.00 | 51 | 1011.7 |
| 20260507165947 | 22 | 162 | 4.8 | 11.3 | 0.00 | 0.00 | 0.00 | 51 | 1011.6 |
| 20260507164944 | 22 | 138 | 3.2 | 16.1 | 0.00 | 0.00 | 0.00 | 51 | 1011.5 |
| 20260507163944 | 22 | 134 | 6.4 | 16.1 | 0.00 | 0.00 | 0.00 | 51 | 1011.4 |
| 20260507162948 | 22 | 131 | 4.8 | 16.1 | 0.00 | 0.00 | 0.00 | 51 | 1011.5 |
| 20260507161943 | 22 | 144 | 6.4 | 14.5 | 0.00 | 0.00 | 0.00 | 51 | 1011.5 |
| 20260507160943 | 22 | 125 | 8.0 | 17.7 | 0.00 | 0.00 | 0.00 | 51 | 1011.5 |
| 20260507154944 | 22 | 151 | 8.0 | 19.3 | 0.00 | 0.00 | 0.00 | 52 | 1011.6 |
| 20260507153943 | 22 | 111 | 4.8 | 14.5 | 0.00 | 0.00 | 0.00 | 52 | 1011.6 |
| 20260507152944 | 22 | 133 | 9.7 | 17.7 | 0.00 | 0.00 | 0.00 | 52 | 1011.8 |
| 20260507151943 | 22 | 111 | 1.6 | 8.0 | 0.00 | 0.00 | 0.00 | 50 | 1011.9 |
| 20260507150944 | 22 | 109 | 3.2 | 4.8 | 0.00 | 0.00 | 0.00 | 49 | 1011.8 |
| 20260507144943 | 22 | 85 | 3.2 | 9.7 | 0.00 | 0.00 | 0.00 | 46 | 1011.9 |
| 20260507143943 | 23 | 121 | 3.2 | 24.1 | 0.00 | 0.00 | 0.00 | 46 | 1011.8 |
| 20260507142944 | 23 | 44 | 8.0 | 14.5 | 0.00 | 0.00 | 0.00 | 43 | 1011.7 |
| 20260507141944 | 24 | 354 | 4.8 | 8.0 | 0.00 | 0.00 | 0.00 | 42 | 1011.7 |
| 20260507140946 | 24 | 248 | 4.8 | 8.0 | 0.00 | 0.00 | 0.00 | 42 | 1011.9 |
| 20260507135944 | 23 | 197 | 3.2 | 8.0 | 0.00 | 0.00 | 0.00 | 42 | 1011.9 |
| 20260507134943 | 23 | 157 | 1.6 | 11.3 | 0.00 | 0.00 | 0.00 | 43 | 1011.9 |
| 20260507133943 | 23 | 255 | 3.2 | 8.0 | 0.00 | 0.00 | 0.00 | 42 | 1011.9 |
| 20260507132944 | 22 | 73 | 1.6 | 8.0 | 0.00 | 0.00 | 0.00 | 43 | 1012.0 |
| 20260507131943 | 22 | 17 | 6.4 | 14.5 | 0.00 | 0.00 | 0.00 | 44 | 1012.0 |
| 20260507130944 | 22 | 30 | 1.6 | 11.3 | 0.00 | 0.00 | 0.00 | 44 | 1012.1 |
| 20260507125944 | 23 | 37 | 8.0 | 14.5 | 0.00 | 0.00 | 0.00 | 42 | 1012.1 |
| 20260507124943 | 22 | 288 | 1.6 | 14.5 | 0.00 | 0.00 | 0.00 | 44 | 1012.2 |
| 20260507123944 | 22 | 123 | 3.2 | 11.3 | 0.00 | 0.00 | 0.00 | 43 | 1012.3 |
| 20260507121943 | 22 | 313 | 1.6 | 8.0 | 0.00 | 0.00 | 0.00 | 46 | 1012.4 |
| 20260507115943 | 21 | 292 | 6.4 | 11.3 | 0.00 | 0.03 | 0.00 | 47 | 1012.7 |
| 20260507114943 | 21 | 18 | 3.2 | 14.5 | 0.00 | 0.05 | 0.00 | 47 | 1012.8 |
| 20260507113944 | 21 | 0 | 8.0 | 19.3 | 0.00 | 0.05 | 0.00 | 48 | 1012.8 |
| 20260507111943 | 21 | 11 | 1.6 | 9.7 | 0.00 | 0.05 | 0.00 | 46 | 1013.0 |
| 20260507110944 | 21 | 0 | 8.0 | 14.5 | 0.00 | 0.05 | 0.00 | 47 | 1013.0 |
| 20260507104943 | 21 | 61 | 8.0 | 14.5 | 0.00 | 0.05 | 0.00 | 49 | 1013.2 |
| 20260507103944 | 20 | 18 | 3.2 | 11.3 | 0.00 | 0.05 | 0.00 | 51 | 1013.3 |
| 20260507101943 | 21 | 0 | 3.2 | 9.7 | 0.00 | 0.05 | 0.00 | 47 | 1013.3 |
| 20260507100943 | 20 | 120 | 3.2 | 9.7 | 0.00 | 0.05 | 0.00 | 49 | 1013.5 |
| 20260507095943 | 20 | 45 | 3.2 | 6.4 | 0.00 | 0.05 | 0.00 | 52 | 1013.5 |
| 20260507094945 | 20 | 63 | 3.2 | 9.7 | 0.00 | 0.05 | 0.00 | 52 | 1013.5 |
| 20260507093943 | 20 | 79 | 4.8 | 11.3 | 0.00 | 0.05 | 0.00 | 52 | 1013.5 |
| 20260507092945 | 20 | 117 | 3.2 | 14.5 | 0.00 | 0.05 | 0.00 | 52 | 1013.5 |
| 20260507091943 | 19 | 106 | 3.2 | 9.7 | 0.00 | 0.05 | 0.00 | 51 | 1013.6 |
| 20260507090943 | 19 | 65 | 8.0 | 11.3 | 0.00 | 0.05 | 0.00 | 53 | 1013.6 |
| 20260507084943 | 19 | 75 | 4.8 | 8.0 | 0.00 | 0.05 | 0.00 | 52 | 1013.4 |
| 20260507083945 | 18 | 125 | 3.2 | 9.7 | 0.00 | 0.08 | 0.00 | 56 | 1013.4 |
| 20260507082945 | 18 | 214 | 0.0 | 8.0 | 0.00 | 0.10 | 0.00 | 56 | 1013.4 |
| 20260507081943 | 17 | 219 | 3.2 | 9.7 | 0.00 | 0.13 | 0.00 | 60 | 1013.3 |
| 20260507080943 | 17 | 219 | 4.8 | 11.3 | 0.00 | 0.13 | 0.00 | 60 | 1013.4 |
| 20260507073943 | 16 | 180 | 4.8 | 14.5 | 0.00 | 0.18 | 0.00 | 64 | 1013.1 |
| 20260507072943 | 16 | 206 | 4.8 | 14.5 | 0.00 | 0.20 | 0.00 | 64 | 1013.1 |
| 20260507071943 | 16 | 192 | 6.4 | 16.1 | 0.00 | 0.25 | 0.00 | 65 | 1013.0 |
| 20260507070943 | 16 | 224 | 6.4 | 9.7 | 0.00 | 0.28 | 0.00 | 65 | 1013.0 |
| 20260507064943 | 15 | 210 | 6.4 | 16.1 | 0.00 | 0.28 | 0.00 | 66 | 1012.9 |
| 20260507063944 | 15 | 209 | 8.0 | 17.7 | 0.00 | 0.30 | 0.00 | 67 | 1012.8 |
| 20260507062946 | 15 | 190 | 6.4 | 16.1 | 0.00 | 0.38 | 0.00 | 67 | 1012.8 |
| 20260507060943 | 15 | 209 | 3.2 | 8.0 | 0.00 | 0.46 | 0.00 | 69 | 1012.6 |
| 20260507054943 | 14 | 217 | 3.2 | 9.7 | 0.00 | 0.61 | 0.00 | 71 | 1012.4 |
| 20260507053943 | 13 | 189 | 1.6 | 4.8 | 0.00 | 0.64 | 0.00 | 74 | 1012.3 |
| 20260507052947 | 13 | 189 | 1.6 | 8.0 | 0.00 | 0.66 | 0.00 | 76 | 1012.1 |
| 20260507051944 | 12 | 197 | 4.8 | 8.0 | 0.00 | 0.69 | 0.00 | 78 | 1012.1 |
| 20260507044944 | 11 | 203 | 1.6 | 3.2 | 0.00 | 0.76 | 0.00 | 86 | 1011.9 |
| 20260507043944 | 11 | 203 | 0.0 | 6.4 | 0.00 | 0.79 | 0.00 | 85 | 1011.7 |